[[{"header":{"parameterUnit":"m.s-1","parameterCategory":2,"la1":30.2992,"la2":30.254,"lo1":-89.0895,"lo2":-89.0443,"dy":0.0025,"dx":0.0025,"nx":19,"ny":19,"refTime":"2026-03-20T03:00:00:Z","depth":"0","parameterNumber":2,"parameterNumberName":"U-component_of_CURRENTS"},"data":[0,0,0,0.391,0.3911,0.401,0.4011,0.4306,0.4309,0,0,0,0,0,0,0,0,0,0,0,0.3893,0.3893,0.391,0.3911,0.401,0.4011,0.4306,0.4309,0,0,0,0,0,0,0,0,0,0,0,0.3893,0.3893,0.3893,0.3911,0.401,0.4011,0.4305,0.4196,0,0,0,0,0,0,0,0,0,0,0.4082,0.4022,0.3893,0.3893,0.3912,0.401,0.4011,0.419,0.4203,0.4299,0,0.4302,0,0.4296,0.433,0.4331,0,0,0,0.3944,0.401,0.4037,0.3893,0.3912,0.401,0.3975,0.4196,0.4212,0.4318,0.4306,0.4315,0.43,0.4332,0.4333,0.4532,0.4532,0,0,0.3939,0.3921,0.4025,0.4046,0.3927,0.3971,0.3978,0.4204,0.422,0.4307,0.4321,0.4305,0.4334,0.4336,0.4532,0.4532,0,0,0,0.3901,0.3917,0.3936,0.4036,0.4031,0.3974,0.3981,0.421,0.4216,0.4324,0.4309,0.4335,0.4339,0.4532,0.4532,0.4453,0,0,0,0.3899,0.3892,0.3933,0.3925,0.4024,0.4095,0.3982,0.4201,0.4225,0.4307,0.4336,0.4342,0.4533,0.4532,0.4455,0.4406,0,0,0,0.389,0.3891,0.3898,0.3924,0.3949,0.409,0.411,0.4205,0.4215,0.4331,0.4343,0.4533,0.4532,0.4457,0.4411,0.4442,0,0,0,0.3876,0.3855,0.3898,0.3893,0.3948,0.3997,0.4108,0.4177,0.4264,0.4337,0.4533,0.4532,0.4458,0.4414,0.4443,0.4428,0.4418,0,0,0.3832,0.3849,0.385,0.3889,0.3879,0.3986,0.4035,0.4197,0.4298,0.4477,0.4481,0.4454,0.4411,0.4442,0.4411,0.4402,0,0,0,0.3825,0.3811,0.3824,0.3835,0.3896,0.3962,0.4101,0.4185,0.4336,0.4341,0.4471,0.4447,0.4469,0.4463,0.4456,0.4371,0.4531,0.4531,0.4531,0.3701,0.3744,0.3727,0.3782,0.3833,0.3962,0.4048,0.4194,0.4307,0.4352,0.4394,0.4376,0.4368,0.4363,0.4275,0.4417,0.4417,0.4417,0.4417,0.36,0.3591,0.3654,0.365,0.3745,0.3812,0.4023,0.4116,0.4287,0.4345,0.4372,0.4394,0.4351,0.426,0.4412,0.4413,0.4413,0.4414,0.4414,0.3507,0.3508,0.3516,0.3531,0.3575,0.3719,0.3824,0.4007,0.4194,0.4238,0.4305,0.4306,0.422,0.4278,0.4278,0.4278,0.4278,0.4278,0.4278,0.3409,0.3418,0.3381,0.3415,0.3424,0.35,0.3722,0.3853,0.4079,0.4215,0.4216,0.4195,0.4336,0.4334,0.4277,0.4277,0.4277,0.4277,0.4277,0.3298,0.3313,0.3252,0.3241,0.3252,0.3252,0.3489,0.3729,0.3919,0.4011,0.4103,0.4232,0.4268,0.4275,0.4273,0.4203,0.4203,0.4203,0.4203,0.3221,0.3228,0.3121,0.3065,0.3057,0.3126,0.3188,0.348,0.3831,0.3977,0.4022,0.4015,0.4022,0.4044,0.4056,0.405,0.3926,0.3925,0.3925,0.3143,0.3131,0.3019,0.2963,0.2938,0.2963,0.2959,0.3135,0.367,0.3905,0.39,0.3912,0.3895,0.3913,0.3947,0.397,0.3963,0,0]},{"header":{"parameterUnit":"m.s-1","parameterCategory":2,"la1":30.2992,"la2":30.254,"lo1":-89.0895,"lo2":-89.0443,"dy":0.0025,"dx":0.0025,"nx":19,"ny":19,"refTime":"2026-03-20T03:00:00:Z","depth":"0","parameterNumber":3,"parameterNumberName":"V-component_of_CURRENTS"},"data":[0,0,0,0.1341,0.134,0.1388,0.1389,0.1458,0.1458,0,0,0,0,0,0,0,0,0,0,0,0.1356,0.1356,0.1341,0.134,0.1388,0.1389,0.1458,0.1458,0,0,0,0,0,0,0,0,0,0,0,0.1356,0.1356,0.1356,0.134,0.1387,0.1389,0.1458,0.1432,0,0,0,0,0,0,0,0,0,0,0.139,0.1404,0.1356,0.1356,0.134,0.1387,0.1389,0.1431,0.1434,0.1422,0,0.1417,0,0.14,0.1458,0.1458,0,0,0,0.1392,0.1403,0.1379,0.1356,0.1339,0.1387,0.1381,0.1433,0.1435,0.1425,0.1418,0.1419,0.1402,0.1458,0.1458,0.155,0.1551,0,0,0.1389,0.1404,0.1377,0.138,0.1335,0.1379,0.1382,0.1435,0.1451,0.1418,0.142,0.1403,0.1458,0.1458,0.155,0.1551,0,0,0,0.1347,0.1402,0.138,0.1378,0.1364,0.1379,0.1382,0.1451,0.1432,0.1421,0.1403,0.1458,0.1458,0.1548,0.155,0.1676,0,0,0,0.1348,0.1372,0.1378,0.1393,0.1362,0.1409,0.1397,0.1431,0.1434,0.1403,0.1458,0.1458,0.1547,0.1549,0.167,0.1722,0,0,0,0.1357,0.1374,0.1366,0.1393,0.1382,0.1407,0.1397,0.1433,0.1421,0.1458,0.1458,0.1547,0.1549,0.1665,0.1714,0.1749,0,0,0,0.139,0.1419,0.1368,0.141,0.138,0.1458,0.1397,0.1466,0.151,0.1458,0.1547,0.155,0.1663,0.1708,0.1744,0.1772,0.1797,0,0,0.1448,0.1427,0.1454,0.1407,0.1494,0.1456,0.1574,0.1586,0.1539,0.1536,0.1539,0.1672,0.1713,0.1748,0.1911,0.1932,0,0,0,0.1487,0.1508,0.1534,0.1558,0.1582,0.1655,0.1649,0.1648,0.1676,0.1559,0.1686,0.1708,0.1726,0.1732,0.175,0.1451,0.1561,0.1561,0.1561,0.1585,0.1589,0.1666,0.1692,0.1747,0.1793,0.185,0.184,0.1777,0.1808,0.1821,0.195,0.1962,0.1974,0.1667,0.1834,0.1835,0.1835,0.1835,0.1663,0.1687,0.1744,0.1812,0.1874,0.1958,0.202,0.2001,0.2031,0.1958,0.1969,0.1879,0.2,0.1665,0.1844,0.1842,0.1841,0.1841,0.184,0.1667,0.1691,0.1734,0.1832,0.1967,0.2047,0.2165,0.2179,0.214,0.2174,0.2126,0.2123,0.1814,0.2163,0.2164,0.2164,0.2164,0.2165,0.2165,0.1634,0.1696,0.1753,0.1867,0.1963,0.2098,0.2242,0.2292,0.231,0.2267,0.2266,0.1831,0.2048,0.2019,0.2172,0.2171,0.217,0.2169,0.2169,0.1623,0.1639,0.1726,0.1809,0.2029,0.2175,0.2314,0.2424,0.2441,0.2441,0.1997,0.2301,0.2251,0.2236,0.2211,0.2404,0.2404,0.2404,0.2404,0.1602,0.1617,0.1737,0.1868,0.2045,0.2221,0.2396,0.2516,0.2288,0.2098,0.1923,0.1815,0.1819,0.1734,0.173,0.169,0.1746,0.1745,0.1743,0.1606,0.1641,0.171,0.1837,0.2063,0.2254,0.2433,0.2552,0.2123,0.168,0.1499,0.1527,0.1328,0.1358,0.119,0.1209,0.113,0,0]}],[{"header":{"parameterUnit":"m.s-1","parameterCategory":2,"la1":30.2992,"la2":30.254,"lo1":-89.0895,"lo2":-89.0443,"dy":0.0025,"dx":0.0025,"nx":19,"ny":19,"refTime":"2026-03-20T03:00:00:Z","depth":"2","parameterNumber":2,"parameterNumberName":"U-component_of_CURRENTS"},"data":[0,0,0,0.2596,0.2604,0.2819,0.2819,0.2975,0.2977,0,0,0,0,0,0,0,0,0,0,0,0.2552,0.2557,0.2596,0.2605,0.2819,0.2819,0.2975,0.2977,0,0,0,0,0,0,0,0,0,0,0,0.255,0.2556,0.2561,0.2606,0.2819,0.2819,0.2974,0.282,0,0,0,0,0,0,0,0,0,0,0.2617,0.2484,0.2554,0.2562,0.2608,0.2819,0.2819,0.2813,0.283,0.2872,0,0.3011,0,0.3028,0.2993,0.2994,0,0,0,0.2515,0.2469,0.2688,0.2562,0.2611,0.2819,0.2697,0.2822,0.2841,0.2894,0.3013,0.3019,0.3031,0.2995,0.2996,0.3216,0.3217,0,0,0.2503,0.2408,0.2676,0.2704,0.2805,0.2691,0.2705,0.2834,0.2815,0.3014,0.3023,0.3033,0.2996,0.2998,0.3216,0.3217,0,0,0,0.253,0.2399,0.261,0.2697,0.2764,0.2699,0.2715,0.2806,0.2929,0.3025,0.3035,0.2998,0.3001,0.3215,0.3216,0.3284,0,0,0,0.2518,0.2425,0.2607,0.2524,0.2766,0.2768,0.2682,0.2918,0.2934,0.3034,0.2998,0.3003,0.3214,0.3216,0.3281,0.3134,0,0,0,0.2517,0.2415,0.2523,0.2524,0.2673,0.277,0.2884,0.292,0.2944,0.2994,0.3004,0.3214,0.3215,0.3278,0.3134,0.3106,0,0,0,0.2295,0.2384,0.2521,0.2621,0.2674,0.2787,0.2883,0.2947,0.2991,0.2999,0.3215,0.3216,0.3277,0.3135,0.3107,0.2946,0.2929,0,0,0.2266,0.2375,0.2448,0.258,0.2681,0.2742,0.2767,0.2917,0.3024,0.3147,0.3153,0.3282,0.3135,0.3106,0.3032,0.3011,0,0,0,0.2345,0.2393,0.2453,0.2567,0.2707,0.2764,0.2863,0.2965,0.3174,0.3084,0.3293,0.3193,0.3175,0.3083,0.3068,0.3223,0.3223,0.3223,0.3223,0.2149,0.2297,0.2359,0.2547,0.2614,0.2763,0.2839,0.2999,0.3142,0.3294,0.3267,0.3285,0.3195,0.318,0.3378,0.3378,0.3378,0.3379,0.3379,0.2173,0.2226,0.2345,0.2479,0.2612,0.2677,0.2873,0.3032,0.3182,0.3315,0.3303,0.3176,0.3166,0.3384,0.3383,0.3383,0.3382,0.3382,0.3381,0.2126,0.2124,0.2315,0.2473,0.2549,0.2692,0.2762,0.2955,0.3153,0.3173,0.3093,0.309,0.3227,0.3246,0.3245,0.3244,0.3244,0.3243,0.3243,0.2005,0.2138,0.2232,0.2405,0.2465,0.2561,0.2729,0.2795,0.2906,0.3004,0.3005,0.3235,0.324,0.3215,0.3232,0.3234,0.3235,0.3236,0.3237,0.1864,0.1968,0.2088,0.2183,0.2307,0.2303,0.247,0.256,0.2651,0.2648,0.2917,0.2928,0.2843,0.2854,0.2818,0.273,0.273,0.273,0.273,0.1702,0.1773,0.1915,0.2017,0.2066,0.2156,0.2097,0.209,0.2274,0.2287,0.2305,0.235,0.2382,0.2272,0.2297,0.225,0.2014,0.2012,0.2011,0.1576,0.165,0.1703,0.1893,0.1955,0.1981,0.1854,0.1736,0.1842,0.1979,0.214,0.269,0.2815,0.2841,0.2722,0.2743,0.2687,0,0]},{"header":{"parameterUnit":"m.s-1","parameterCategory":2,"la1":30.2992,"la2":30.254,"lo1":-89.0895,"lo2":-89.0443,"dy":0.0025,"dx":0.0025,"nx":19,"ny":19,"refTime":"2026-03-20T03:00:00:Z","depth":"2","parameterNumber":3,"parameterNumberName":"V-component_of_CURRENTS"},"data":[0,0,0,-0.0294,-0.0293,-0.0321,-0.0322,-0.0509,-0.0511,0,0,0,0,0,0,0,0,0,0,0,-0.0236,-0.0233,-0.0294,-0.0293,-0.0321,-0.0322,-0.0509,-0.0511,0,0,0,0,0,0,0,0,0,0,0,-0.0237,-0.0234,-0.0231,-0.0293,-0.0321,-0.0322,-0.0509,-0.0462,0,0,0,0,0,0,0,0,0,0,-0.0421,-0.0446,-0.0235,-0.0231,-0.0292,-0.0321,-0.0322,-0.0459,-0.0465,-0.0523,0,-0.0442,0,-0.048,-0.0522,-0.0522,0,0,0,-0.0346,-0.0441,-0.0325,-0.0231,-0.0292,-0.032,-0.0323,-0.0462,-0.0469,-0.0532,-0.0445,-0.0453,-0.0484,-0.0523,-0.0524,-0.0514,-0.0513,0,0,-0.0344,-0.0389,-0.0318,-0.0325,-0.0192,-0.0322,-0.0323,-0.0465,-0.0504,-0.0446,-0.0457,-0.0487,-0.0524,-0.0525,-0.0516,-0.0514,0,0,0,-0.0304,-0.0389,-0.0271,-0.0317,-0.0309,-0.0321,-0.0323,-0.05,-0.042,-0.046,-0.0489,-0.0525,-0.0527,-0.0517,-0.0515,-0.0197,0,0,0,-0.0306,-0.0359,-0.0267,-0.0318,-0.0303,-0.0418,-0.0356,-0.0409,-0.0428,-0.0488,-0.0525,-0.0529,-0.0519,-0.0516,-0.0209,-0.0334,0,0,0,-0.0254,-0.0363,-0.0299,-0.0315,-0.0295,-0.0413,-0.0352,-0.0414,-0.0445,-0.0522,-0.0529,-0.052,-0.0516,-0.0219,-0.0345,-0.0311,0,0,0,-0.0392,-0.0312,-0.03,-0.0218,-0.0292,-0.0277,-0.0351,-0.0388,-0.0438,-0.0526,-0.0518,-0.0515,-0.0222,-0.0351,-0.0317,-0.0356,-0.0334,0,0,-0.0362,-0.0312,-0.0244,-0.0231,-0.0171,-0.0284,-0.0303,-0.037,-0.0412,-0.0496,-0.0496,-0.0205,-0.0345,-0.0313,-0.0171,-0.0154,0,0,0,-0.028,-0.0225,-0.021,-0.0156,-0.0149,-0.0194,-0.0298,-0.0276,-0.0201,-0.0414,-0.0229,-0.0336,-0.0321,-0.0354,-0.034,-0.05,-0.05,-0.0501,-0.0501,-0.0281,-0.0204,-0.0132,-0.0056,-0.0067,-0.0146,-0.0139,-0.0131,-0.0151,0.0,-0.0078,0.0113,0.0094,0.01,0.005,0.0052,0.0053,0.0054,0.0055,-0.014,-0.0054,-0.0016,0.0093,0.0083,0.0081,0.007,0.0117,0.0134,0.0145,0.0157,-0.0028,0.0134,0.008,0.0075,0.0071,0.0069,0.0067,0.0066,-0.0058,-0.0033,0.0101,0.0253,0.0315,0.0278,0.0352,0.0331,0.0316,0.0325,0.0225,0.0218,0.017,0.041,0.041,0.0409,0.0409,0.0409,0.0409,-0.0021,0.0083,0.023,0.0378,0.0469,0.0555,0.0521,0.0523,0.0432,0.0334,0.0336,0.0224,0.0213,0.018,0.0405,0.0406,0.0406,0.0407,0.0407,0.0058,0.0127,0.0324,0.0451,0.0642,0.0753,0.0724,0.0668,0.0579,0.051,0.0353,0.0356,0.0168,0.0155,0.0115,0.0307,0.0307,0.0307,0.0307,0.0077,0.0131,0.0397,0.0592,0.0743,0.0827,0.088,0.0707,0.048,0.026,0.0261,0.0293,0.0299,0.0114,0.0101,0.0056,0.0235,0.0234,0.0234,0.0131,0.0195,0.0392,0.062,0.0796,0.0918,0.0952,0.0791,0.0428,0.023,0.0238,0.0305,0.036,0.0365,0.0076,0.0059,-0.0016,0,0]}],[{"header":{"parameterUnit":"m.s-1","parameterCategory":2,"la1":30.2992,"la2":30.254,"lo1":-89.0895,"lo2":-89.0443,"dy":0.0025,"dx":0.0025,"nx":19,"ny":19,"refTime":"2026-03-20T03:00:00:Z","depth":"4","parameterNumber":2,"parameterNumberName":"U-component_of_CURRENTS"},"data":[0,0,0,0.0702,0.0705,0.0848,0.0849,0.0906,0.0906,0,0,0,0,0,0,0,0,0,0,0,0.066,0.0661,0.0702,0.0705,0.0848,0.0849,0.0906,0.0906,0,0,0,0,0,0,0,0,0,0,0,0.066,0.0661,0.0662,0.0705,0.0848,0.0849,0.0906,0.0834,0,0,0,0,0,0,0,0,0,0,0.0712,0.0695,0.0661,0.0662,0.0706,0.0848,0.0849,0.0832,0.0838,0.0799,0,0.0821,0,0.085,0.0905,0.0905,0,0,0,0.0724,0.069,0.0713,0.0662,0.0707,0.0847,0.0789,0.0837,0.0844,0.0807,0.0823,0.0825,0.0851,0.0905,0.0905,0.0938,0.0938,0,0,0.0716,0.07,0.0709,0.0718,0.0741,0.0784,0.0793,0.0843,0.0853,0.0823,0.0827,0.0852,0.0905,0.0905,0.0937,0.0938,0,0,0,0.068,0.0694,0.072,0.0714,0.0742,0.0788,0.0798,0.0852,0.0857,0.0828,0.0852,0.0905,0.0905,0.0937,0.0938,0.1012,0,0,0,0.0676,0.0672,0.0716,0.071,0.0742,0.0818,0.0806,0.0854,0.0861,0.0852,0.0905,0.0905,0.0936,0.0937,0.1009,0.1008,0,0,0,0.0654,0.067,0.0683,0.0708,0.076,0.0818,0.0829,0.0858,0.0873,0.0905,0.0905,0.0936,0.0937,0.1006,0.1004,0.1034,0,0,0,0.0638,0.0662,0.0683,0.0713,0.0758,0.0832,0.0829,0.0899,0.0933,0.0905,0.0937,0.0938,0.1005,0.1002,0.1032,0.0906,0,0,0,0.0655,0.0664,0.0679,0.07,0.0761,0.0814,0.089,0.0936,0.093,0.0913,0.0915,0.101,0.1004,0.1033,0.0969,0,0,0,0,0.0674,0.0689,0.071,0.0751,0.0804,0.0885,0.0939,0.096,0.1008,0.0951,0.1011,0.1004,0.102,0.094,0.0943,0.0943,0.0942,0.0942,0.0942,0.0664,0.0693,0.0734,0.0789,0.0843,0.0938,0.0994,0.103,0.103,0.107,0.1067,0.1137,0.1057,0.1085,0.1086,0.1086,0.1086,0.1087,0.1087,0.0672,0.0684,0.075,0.0809,0.0888,0.0964,0.1048,0.1085,0.114,0.1128,0.1143,0.1027,0.1094,0.1093,0.1092,0.1091,0.109,0.109,0.1089,0.0634,0.065,0.0704,0.079,0.0896,0.0998,0.1068,0.114,0.1183,0.1214,0.1133,0.1174,0.1165,0.1244,0.1244,0.1245,0.1245,0.1245,0.1245,0.0568,0.0623,0.0668,0.0779,0.0842,0.0956,0.1097,0.1136,0.1208,0.1175,0.1241,0.1189,0.1184,0.1172,0.1247,0.1247,0.1247,0.1246,0.1246,0.0514,0.054,0.0594,0.0652,0.0798,0.0867,0.1021,0.1108,0.1145,0.1144,0.1148,0.1152,0.1104,0.11,0.1084,0.1135,0.1134,0.1133,0,0.0459,0.048,0.0542,0.0603,0.0681,0.0812,0.0863,0.096,0.103,0.0996,0.1114,0.1113,0.1117,0.1056,0.1051,0.1027,0,0,0,0.0425,0.0451,0.0477,0.0554,0.0631,0.0751,0.0882,0.0892,0.1024,0.1048,0.1099,0.1108,0.1185,0.1255,0.1189,0.1183,0.116,0,0]},{"header":{"parameterUnit":"m.s-1","parameterCategory":2,"la1":30.2992,"la2":30.254,"lo1":-89.0895,"lo2":-89.0443,"dy":0.0025,"dx":0.0025,"nx":19,"ny":19,"refTime":"2026-03-20T03:00:00:Z","depth":"4","parameterNumber":3,"parameterNumberName":"V-component_of_CURRENTS"},"data":[0,0,0,-0.0267,-0.0269,-0.0357,-0.0358,-0.0498,-0.05,0,0,0,0,0,0,0,0,0,0,0,-0.023,-0.023,-0.0267,-0.0269,-0.0357,-0.0358,-0.0498,-0.05,0,0,0,0,0,0,0,0,0,0,0,-0.023,-0.023,-0.0231,-0.027,-0.0357,-0.0358,-0.0498,-0.0425,0,0,0,0,0,0,0,0,0,0,-0.0337,-0.0296,-0.023,-0.0231,-0.027,-0.0357,-0.0358,-0.0422,-0.043,-0.0465,0,-0.0471,0,-0.0492,-0.0509,-0.051,0,0,0,-0.0274,-0.0289,-0.0314,-0.0231,-0.0271,-0.0357,-0.0319,-0.0426,-0.0436,-0.0476,-0.0474,-0.0479,-0.0494,-0.051,-0.0511,-0.058,-0.058,0,0,-0.0269,-0.0249,-0.0307,-0.032,-0.0286,-0.0316,-0.0321,-0.0432,-0.0438,-0.0474,-0.0482,-0.0496,-0.0511,-0.0512,-0.0581,-0.058,0,0,0,-0.0252,-0.0245,-0.0268,-0.0314,-0.0329,-0.0318,-0.0325,-0.0433,-0.044,-0.0484,-0.0498,-0.0512,-0.0514,-0.0581,-0.0581,-0.0538,0,0,0,-0.0249,-0.0235,-0.0265,-0.0255,-0.0326,-0.0379,-0.0323,-0.0432,-0.0446,-0.0497,-0.0512,-0.0515,-0.0581,-0.0581,-0.054,-0.0501,0,0,0,-0.0227,-0.0234,-0.0241,-0.0253,-0.029,-0.0377,-0.0391,-0.0435,-0.0454,-0.051,-0.0516,-0.0582,-0.0581,-0.0541,-0.0505,-0.0492,0,0,0,-0.0208,-0.0208,-0.024,-0.0243,-0.0289,-0.0315,-0.039,-0.0429,-0.047,-0.0513,-0.0581,-0.0581,-0.0542,-0.0507,-0.0494,-0.0431,0,0,0,-0.0194,-0.0206,-0.0206,-0.0237,-0.0245,-0.0304,-0.0327,-0.0419,-0.0471,-0.0549,-0.0551,-0.0539,-0.0505,-0.0493,-0.0387,0,0,0,0,-0.0192,-0.019,-0.0197,-0.0214,-0.0244,-0.0283,-0.0363,-0.04,-0.0475,-0.0492,-0.0535,-0.0515,-0.0509,-0.0477,-0.0577,-0.0577,-0.0577,-0.0577,-0.0577,-0.0155,-0.017,-0.0163,-0.0189,-0.0209,-0.0275,-0.0307,-0.0375,-0.044,-0.0461,-0.0478,-0.0433,-0.0398,-0.0487,-0.0487,-0.0487,-0.0487,-0.0487,-0.0486,-0.0123,-0.0118,-0.0136,-0.0137,-0.0178,-0.0207,-0.0282,-0.0331,-0.0384,-0.0434,-0.0431,-0.0431,-0.0482,-0.0483,-0.0484,-0.0484,-0.0484,-0.0485,-0.0485,-0.0097,-0.0095,-0.01,-0.01,-0.0116,-0.017,-0.0171,-0.0246,-0.033,-0.0331,-0.0322,-0.04,-0.0407,-0.0346,-0.0346,-0.0346,-0.0346,-0.0345,-0.0345,-0.0073,-0.0074,-0.0055,-0.006,-0.0056,-0.006,-0.0111,-0.0134,-0.0222,-0.0248,-0.0323,-0.0386,-0.039,-0.0399,-0.0342,-0.0342,-0.0343,-0.0343,-0.0343,-0.0042,-0.0046,-0.0009,0.0004,0.0028,0.0033,-0.0003,-0.0047,-0.0068,-0.0109,-0.0212,-0.0219,-0.0228,-0.0237,-0.0241,-0.0134,-0.0133,-0.0132,0,-0.0022,-0.002,0.003,0.0066,0.0104,0.0086,0.0101,0.0063,-0.0042,-0.0044,-0.0097,-0.0211,-0.0218,-0.0228,-0.0234,-0.0237,0,0,0,0.0003,0.0018,0.0056,0.0087,0.0128,0.0124,0.0106,0.0092,-0.0023,-0.0024,-0.0106,-0.0113,-0.0218,-0.0331,-0.0363,-0.0369,-0.0384,0,0]}]]